Location: Unspecified
(0.0000°N, 0.0000°E)
Time: 07:20:21
(UTC+00:00)

Tiangong - Pass Details

Date: 20 September 2021
Orbit: 381 x 386 km, 41.5° (Epoch: 18 September)

Event Time Altitude Azimuth Distance (km) Brightness Sun altitude
Exits shadow 05:03:26 18° 301° (WNW) 1,015 2.7 -12.5°
Maximum altitude 05:04:01 19° 317° (NW) 984 2.7 -12.4°
Drops below altitude 10° 05:06:21 10° 5° (N) 1,393 4.0 -11.8°
Sets 05:08:48 0° 24° (NNE) 2,245 5.3 -11.2°
